Location: Ch�tillon
(48.8024°N, 2.2935°E)
Time: 03:18:57
(UTC+00:00)

Cosmos 1844 Rocket - Pass Details

Date: 16 October 2021
Orbit: 826 x 843 km, 71.0° (Epoch: 27 November)

Event Time Altitude Azimuth Distance (km) Brightness Sun altitude
Rises 17:52:58 0° 336° (NNW) 3,382 6.1 -9.6°
Reaches altitude 10° 17:56:36 10° 359° (N) 2,442 5.1 -10.2°
Maximum altitude 17:59:41 15° 33° (NNE) 2,114 4.5 -10.7°
Enters shadow 18:02:16 11° 62° (ENE) 2,343 4.5 -11.1°
